Location: B?ogocice
(50.2413°N, 20.2361°E)
Time: 04:29:50
(UTC+00:00)

ALOS - Pass Details

Date: 24 September 2024
Orbit: 670 x 673 km, 98.0° (Epoch: 04 October)

Event Time Altitude Azimuth Distance (km) Brightness Sun altitude
Rises 01:32:16 0° 14° (NNE) 3,030 6.3 -27.3°
Reaches altitude 10° 01:34:31 10° 15° (NNE) 2,111 5.4 -27.0°
Enters shadow 01:38:42 73° 24° (NNE) 705 2.3 -26.4°
